Hourly Data Report for September 06, 2017

All times are specified in Local Standard Time (LST). Add 1 hour to adjust for Daylight Saving Time where and when it is observed.

POINT LEPREAU CS
NEW BRUNSWICK

45°04'23.040" N
66°26'57.090" W
6.00 m
8104201
71699
WPE

Download Data

Hourly Data (September 2017)
Hourly Data Report for September 6, 2017
Temp Definition
°C
Dew Point Temp Definition
°C
Rel Hum Definition
%
Wind Dir Definition
10's deg

Wind Spd Definition
km/h
Visibility Definition
km
Stn Press Definition
kPa
Hmdx Definition


Wind Chill Definition


Weather Definition


TIME
00:00 15.4 15.1 98 24 7   101.19     LegendNANA
01:00 15.0 14.8 98 19 3   101.18     LegendNANA
02:00 15.2 14.8 98 19 5   101.18     LegendNANA
03:00 14.8 14.5 99 17 6   101.19     LegendNANA
04:00 14.5 14.4 99 18 10   101.20     LegendNANA
05:00 14.9 14.7 99 19 10   101.25     LegendNANA
06:00 14.9 14.9 100 20 10   101.32     LegendNANA
07:00 15.0 LegendMM 100 20 9   101.37     LegendNANA
08:00 15.3 LegendMM 100 19 11   101.39     LegendNANA
09:00 15.4 15.3 99 21 11   101.42     LegendNANA
10:00 15.2 15.1 99 19 18   101.45     LegendNANA
11:00 14.8 LegendMM 100 19 18   101.50     LegendNANA
12:00 14.5 LegendMM 100 18 14   101.49     LegendNANA
13:00 15.0 LegendMM 100 19 14   101.44     LegendNANA
14:00 15.3 LegendMM 100 20 10   101.41     LegendNANA
15:00 14.8 LegendMM 100 20 10   101.40     LegendNANA
16:00 15.2 LegendMM 100 19 14   101.40     LegendNANA
17:00 15.2 LegendMM 100 21 12   101.47     LegendNANA
18:00 15.0 LegendMM 100 17 6   101.49     LegendNANA
19:00 15.5 LegendMM 100 21 6   101.47     LegendNANA
20:00 15.2 LegendMM 100 27 6   101.55     LegendNANA
21:00 15.1 LegendMM 100 18 7   101.45     LegendNANA
22:00 15.2 LegendMM 100 14 3   101.43     LegendNANA
23:00 15.7 LegendMM 100 19 9   101.41     LegendNANA

Notes on Data Quality.

Legend

  • E = Estimated
  • M = Missing
  • NA = Not Available
  • ‡ = Partner data that is not subject to review by the National Climate Archives
Date modified: